QPF
0.01 0.02 0.03 0.03 0.03 0.02 0.03 0.03 0.04 0.03 0.03 0.03 0.03 0.03 0.05 0.05 0.03 0.02 0.02 0.03 0.03 0.02 0.05 0.06 0.05 0.04 0.03 0.03 0.02 0.02 0.02 0.03 0.03 0.05 0.06 0.10 0.10 0.07 0.04 0.02 0.02 0.01 0.01 0.01 0.02 0.02 0.02 0.02 0.03
0.02 0.02 0.03 0.03 0.02 0.01 0.03 0.05 0.04 0.03 0.02 0.02 0.03 0.03 0.03 0.05 0.03 0.03 0.02 0.03 0.03 0.02 0.03 0.03 0.03 0.02 0.02 0.02 0.01 0.01 0.02 0.03 0.03 0.04 0.05 0.08 0.08 0.07 0.05 0.03 0.02 0.01 0.01 0.01 0.01 0.01 0.03 0.02 0.02
0.02 0.02 0.03 0.02 0.01 0.01 0.02 0.04 0.04 0.04 0.03 0.02 0.03 0.03 0.03 0.03 0.02 0.01 0.01 0.01 0.02 0.04 0.03 0.04 0.03 0.02 0.02 0.02 0.01 0.01 0.01 0.03 0.03 0.03 0.04 0.04 0.04 0.04 0.03 0.02 0.01 0.01 0.01 0.01 0.01 0.02 0.02 0.02 0.02
0.01 0.01 0.01 0.01 0.01 0.01 0.01 0.02 0.02 0.04 0.03 0.03 0.02 0.02 0.02 0.02 0.01 0.01 0.01 0.01 0.02 0.02 0.02 0.04 0.03 0.02 0.02 0.01 0.01 0.01 0.01 0.02 0.03 0.03 0.03 0.05 0.04 0.03 0.02 0.02 0.02 0.02 0.01 0.01 0.01 0.02 0.02 0.02 0.02
0.01 0.01 0.01 0.01 0.01 0.02 0.02 0.01 0.02 0.04 0.04 0.01 0.02 0.03 0.05 0.04 0.02 0.01 0.00 0.01 0.02 0.01 0.01 0.02 0.02 0.03 0.02 0.02 0.01 0.01 0.02 0.01 0.01 0.02 0.03 0.04 0.04 0.04 0.04 0.03 0.02 0.01 0.01 0.01 0.01 0.01 0.02 0.02 0.03
0.00 0.01 0.01 0.01 0.01 0.02 0.02 0.01 0.02 0.03 0.03 0.01 0.02 0.04 0.05 0.04 0.02 0.01 0.00 0.01 0.01 0.01 0.01 0.01 0.02 0.04 0.03 0.02 0.01 0.01 0.01 0.01 0.01 0.02 0.03 0.03 0.03 0.02 0.03 0.03 0.03 0.02 0.01 0.01 0.01 0.02 0.02 0.03 0.04
0.01 0.01 0.02 0.01 0.01 0.01 0.02 0.01 0.01 0.01 0.02 0.02 0.02 0.02 0.02 0.04 0.02 0.01 0.01 0.00 0.00 0.01 0.01 0.01 0.02 0.04 0.03 0.02 0.02 0.01 0.01 0.01 0.02 0.03 0.03 0.03 0.03 0.02 0.03 0.02 0.02 0.02 0.02 0.01 0.02 0.03 0.03 0.04 0.04
0.01 0.01 0.01 0.01 0.01 0.01 0.02 0.01 0.01 0.01 0.01 0.02 0.02 0.01 0.02 0.02 0.02 0.03 0.02 0.01 0.01 0.01 0.01 0.01 0.01 0.02 0.02 0.02 0.03 0.03 0.03 0.02 0.02 0.03 0.04 0.03 0.03 0.04 0.04 0.03 0.02 0.02 0.03 0.02 0.02 0.04 0.05 0.05 0.05
0.01 0.01 0.00 0.00 0.01 0.02 0.02 0.01 0.01 0.00 0.00 0.01 0.01 0.00 0.00 0.01 0.04 0.06 0.05 0.02 0.01 0.02 0.03 0.01 0.01 0.02 0.03 0.02 0.02 0.03 0.05 0.03 0.02 0.02 0.04 0.04 0.03 0.03 0.05 0.03 0.04 0.04 0.05 0.04 0.04 0.05 0.05 0.06 0.06
0.01 0.01 0.01 0.00 0.01 0.01 0.01 0.00 0.00 0.00 0.00 0.01 0.01 0.00 0.01 0.02 0.05 0.05 0.07 0.03 0.03 0.03 0.03 0.03 0.02 0.01 0.02 0.02 0.01 0.01 0.01 0.02 0.02 0.02 0.04 0.04 0.04 0.03 0.03 0.04 0.05 0.06 0.06 0.07 0.07 0.06 0.06 0.06 0.04
0.01 0.01 0.01 0.00 0.00 0.00 0.00 0.00 0.01 0.01 0.00 0.01 0.01 0.01 0.02 0.02 0.03 0.07 0.05 0.03 0.02 0.01 0.01 0.03 0.04 0.03 0.02 0.02 0.02 0.01 0.01 0.01 0.02 0.02 0.03 0.03 0.03 0.04 0.04 0.05 0.05 0.05 0.05 0.06 0.07 0.07 0.07 0.06 0.05
0.03 0.02 0.01 0.00 0.00 0.00 0.00 0.01 0.01 0.00 0.00 0.01 0.01 0.00 0.01 0.03 0.01 0.02 0.03 0.03 0.02 0.01 0.01 0.02 0.03 0.04 0.03 0.03 0.04 0.02 0.02 0.02 0.02 0.02 0.03 0.03 0.02 0.03 0.04 0.04 0.05 0.05 0.04 0.04 0.04 0.04 0.05 0.06 0.06
0.02 0.01 0.01 0.01 0.00 0.00 0.00 0.00 0.00 0.00 0.01 0.02 0.01 0.01 0.01 0.01 0.01 0.04 0.05 0.01 0.01 0.01 0.00 0.01 0.03 0.04 0.03 0.03 0.04 0.02 0.02 0.02 0.02 0.03 0.03 0.03 0.02 0.03 0.03 0.04 0.04 0.05 0.05 0.04 0.03 0.04 0.03 0.04 0.04
0.01 0.01 0.00 0.00 0.00 0.00 0.00 0.00 0.00 0.00 0.00 0.01 0.01 0.01 0.01 0.01 0.02 0.07 0.04 0.01 0.00 0.00 0.00 0.01 0.03 0.03 0.02 0.03 0.03 0.04 0.02 0.02 0.02 0.02 0.03 0.02 0.02 0.03 0.04 0.04 0.05 0.04 0.05 0.05 0.04 0.04 0.03 0.03 0.03
0.00 0.01 0.01 0.00 0.01 0.01 0.01 0.00 0.00 0.00 0.00 0.00 0.01 0.01 0.00 0.01 0.02 0.05 0.02 0.02 0.01 0.00 0.00 0.01 0.03 0.02 0.01 0.02 0.02 0.03 0.02 0.01 0.01 0.02 0.02 0.02 0.02 0.03 0.04 0.04 0.07 0.07 0.05 0.05 0.04 0.04 0.03 0.02 0.02
0.01 0.01 0.01 0.01 0.01 0.00 0.01 0.00 0.00 0.00 0.00 0.00 0.00 0.01 0.01 0.01 0.01 0.03 0.01 0.01 0.00 0.00 0.01 0.02 0.02 0.01 0.01 0.02 0.02 0.01 0.01 0.02 0.02 0.01 0.02 0.03 0.05 0.03 0.03 0.05 0.08 0.09 0.07 0.06 0.05 0.04 0.03 0.02 0.02
0.01 0.02 0.02 0.01 0.00 0.00 0.00 0.00 0.00 0.00 0.00 0.00 0.00 0.01 0.01 0.01 0.01 0.01 0.01 0.01 0.01 0.00 0.01 0.01 0.02 0.01 0.02 0.03 0.03 0.02 0.02 0.03 0.03 0.02 0.01 0.02 0.04 0.07 0.05 0.05 0.08 0.09 0.08 0.06 0.05 0.04 0.03 0.03 0.03
0.01 0.01 0.01 0.01 0.00 0.00 0.00 0.00 0.00 0.00 0.00 0.00 0.00 0.00 0.01 0.02 0.02 0.01 0.01 0.02 0.01 0.01 0.01 0.01 0.01 0.01 0.01 0.01 0.01 0.01 0.02 0.03 0.04 0.03 0.03 0.04 0.02 0.05 0.10 0.08 0.07 0.07 0.07 0.06 0.05 0.04 0.04 0.04 0.03
0.00 0.00 0.00 0.00 0.00 0.00 0.01 0.01 0.00 0.01 0.01 0.01 0.01 0.01 0.01 0.02 0.03 0.02 0.02 0.03 0.03 0.02 0.02 0.02 0.02 0.01 0.01 0.01 0.01 0.02 0.03 0.04 0.05 0.04 0.04 0.04 0.03 0.03 0.06 0.12 0.09 0.06 0.06 0.06 0.06 0.06 0.04 0.03 0.02
0.00 0.00 0.00 0.01 0.00 0.01 0.01 0.01 0.01 0.01 0.02 0.02 0.02 0.02 0.01 0.01 0.03 0.04 0.04 0.04 0.04 0.04 0.04 0.04 0.03 0.03 0.02 0.02 0.02 0.03 0.04 0.04 0.07 0.08 0.06 0.05 0.03 0.03 0.03 0.07 0.11 0.09 0.07 0.07 0.07 0.05 0.03 0.03 0.04
0.00 0.00 0.00 0.00 0.01 0.02 0.02 0.02 0.01 0.02 0.02 0.03 0.03 0.02 0.02 0.02 0.03 0.03 0.04 0.04 0.03 0.05 0.07 0.08 0.07 0.05 0.05 0.03 0.04 0.05 0.05 0.05 0.07 0.08 0.07 0.05 0.03 0.02 0.03 0.05 0.08 0.08 0.08 0.07 0.06 0.04 0.03 0.03 0.05
0.00 0.00 0.00 0.00 0.00 0.01 0.02 0.02 0.01 0.01 0.02 0.02 0.03 0.04 0.03 0.03 0.04 0.04 0.03 0.03 0.05 0.06 0.04 0.05 0.07 0.06 0.07 0.06 0.06 0.08 0.07 0.06 0.05 0.05 0.07 0.06 0.04 0.03 0.05 0.08 0.10 0.11 0.09 0.07 0.06 0.04 0.03 0.03 0.04
0.00 0.00 0.00 0.00 0.00 0.00 0.00 0.00 0.01 0.01 0.01 0.02 0.02 0.02 0.02 0.02 0.04 0.03 0.03 0.02 0.03 0.02 0.02 0.03 0.05 0.04 0.05 0.08 0.09 0.10 0.09 0.08 0.08 0.06 0.07 0.07 0.05 0.04 0.04 0.04 0.05 0.09 0.12 0.11 0.08 0.05 0.04 0.04 0.05
0.00 0.00 0.00 0.01 0.01 0.00 0.00 0.00 0.00 0.00 0.01 0.02 0.01 0.01 0.01 0.02 0.02 0.01 0.01 0.02 0.02 0.03 0.02 0.02 0.02 0.03 0.04 0.06 0.06 0.07 0.08 0.07 0.07 0.06 0.05 0.05 0.05 0.05 0.04 0.04 0.04 0.05 0.09 0.12 0.11 0.09 0.06 0.05 0.07
0.00 0.00 0.01 0.01 0.01 0.00 0.00 0.00 0.01 0.00 0.00 0.00 0.00 0.01 0.01 0.01 0.02 0.02 0.01 0.02 0.02 0.03 0.03 0.03 0.03 0.03 0.04 0.05 0.05 0.05 0.05 0.06 0.06 0.06 0.08 0.07 0.09 0.10 0.11 0.11 0.09 0.07 0.06 0.09 0.13 0.14 0.11 0.08 0.08
0.00 0.00 0.00 0.00 0.00 0.00 0.00 0.00 0.01 0.00 0.00 0.00 0.00 0.01 0.01 0.01 0.02 0.02 0.02 0.03 0.04 0.06 0.07 0.07 0.06 0.05 0.07 0.06 0.06 0.06 0.06 0.07 0.07 0.08 0.07 0.07 0.08 0.08 0.10 0.09 0.08 0.07 0.07 0.06 0.08 0.10 0.11 0.11 0.11
0.00 0.00 0.00 0.00 0.00 0.00 0.00 0.00 0.02 0.01 0.01 0.00 0.01 0.01 0.03 0.03 0.02 0.03 0.04 0.05 0.05 0.08 0.11 0.14 0.14 0.11 0.10 0.11 0.10 0.08 0.07 0.07 0.06 0.05 0.04 0.04 0.04 0.04 0.04 0.04 0.04 0.03 0.05 0.05 0.05 0.06 0.07 0.10 0.12
0.00 0.00 0.00 0.00 0.00 0.00 0.00 0.00 0.01 0.01 0.01 0.01 0.01 0.01 0.02 0.05 0.05 0.05 0.07 0.06 0.04 0.06 0.09 0.11 0.15 0.15 0.11 0.08 0.06 0.04 0.03 0.04 0.04 0.04 0.04 0.04 0.04 0.03 0.03 0.03 0.03 0.03 0.03 0.04 0.05 0.05 0.05 0.07 0.08
0.00 0.00 0.00 0.00 0.00 0.00 0.00 0.01 0.00 0.01 0.01 0.01 0.01 0.01 0.01 0.02 0.03 0.03 0.03 0.04 0.06 0.07 0.09 0.09 0.08 0.08 0.07 0.05 0.04 0.02 0.02 0.02 0.02 0.02 0.02 0.03 0.04 0.03 0.03 0.03 0.03 0.03 0.03 0.03 0.05 0.06 0.07 0.08 0.08
0.00 0.00 0.00 0.00 0.00 0.00 0.00 0.00 0.00 0.01 0.01 0.01 0.01 0.01 0.01 0.01 0.02 0.02 0.03 0.04 0.05 0.05 0.07 0.08 0.08 0.08 0.06 0.04 0.03 0.02 0.02 0.02 0.02 0.02 0.04 0.03 0.02 0.03 0.04 0.04 0.03 0.02 0.02 0.04 0.04 0.05 0.06 0.07 0.08
MSLP
1006.10 1006.91 1007.96 1009.10 1010.19 1011.08 1011.68 1011.98 1012.02 1011.88 1011.71 1011.59 1011.61 1011.76 1012.02 1012.29 1012.49 1012.54 1012.39 1012.07 1011.62 1011.14 1010.72 1010.43 1010.33 1010.40 1010.61 1010.91 1011.23 1011.53 1011.78 1012.01 1012.23 1012.48 1012.77 1013.12 1013.51 1013.91 1014.29 1014.60 1014.83 1014.99 1015.09 1015.16 1015.23 1015.32 1015.44 1015.57 1015.70
1006.42 1007.44 1008.64 1009.85 1010.92 1011.71 1012.16 1012.26 1012.09 1011.77 1011.43 1011.19 1011.13 1011.24 1011.49 1011.78 1012.02 1012.13 1012.05 1011.82 1011.47 1011.09 1010.78 1010.59 1010.57 1010.71 1010.96 1011.28 1011.61 1011.90 1012.15 1012.35 1012.55 1012.77 1013.04 1013.35 1013.70 1014.05 1014.38 1014.66 1014.86 1015.00 1015.10 1015.17 1015.25 1015.35 1015.46 1015.59 1015.71
1006.93 1008.11 1009.40 1010.62 1011.62 1012.28 1012.56 1012.49 1012.14 1011.67 1011.21 1010.89 1010.77 1010.85 1011.08 1011.38 1011.64 1011.77 1011.75 1011.59 1011.32 1011.05 1010.83 1010.74 1010.80 1011.01 1011.31 1011.65 1011.98 1012.27 1012.50 1012.68 1012.86 1013.05 1013.28 1013.55 1013.85 1014.16 1014.45 1014.68 1014.86 1014.99 1015.09 1015.18 1015.27 1015.38 1015.51 1015.63 1015.74
1007.59 1008.87 1010.17 1011.33 1012.22 1012.74 1012.86 1012.64 1012.17 1011.61 1011.10 1010.74 1010.60 1010.67 1010.89 1011.18 1011.43 1011.58 1011.59 1011.47 1011.27 1011.08 1010.95 1010.94 1011.08 1011.33 1011.66 1012.01 1012.33 1012.60 1012.81 1012.98 1013.13 1013.30 1013.50 1013.74 1014.01 1014.27 1014.52 1014.72 1014.88 1015.00 1015.10 1015.21 1015.33 1015.46 1015.59 1015.72 1015.82
1008.34 1009.62 1010.86 1011.91 1012.65 1013.02 1013.00 1012.68 1012.16 1011.58 1011.08 1010.75 1010.63 1010.72 1010.94 1011.22 1011.46 1011.59 1011.61 1011.52 1011.37 1011.24 1011.19 1011.24 1011.42 1011.70 1012.03 1012.36 1012.66 1012.90 1013.09 1013.23 1013.37 1013.53 1013.72 1013.94 1014.17 1014.41 1014.62 1014.79 1014.93 1015.04 1015.15 1015.27 1015.40 1015.55 1015.70 1015.82 1015.92
1009.07 1010.28 1011.39 1012.27 1012.85 1013.06 1012.95 1012.59 1012.08 1011.55 1011.13 1010.89 1010.84 1010.96 1011.20 1011.46 1011.68 1011.80 1011.82 1011.74 1011.64 1011.55 1011.54 1011.63 1011.83 1012.10 1012.40 1012.70 1012.95 1013.15 1013.31 1013.44 1013.57 1013.73 1013.92 1014.14 1014.36 1014.57 1014.76 1014.90 1015.01 1015.11 1015.21 1015.33 1015.47 1015.63 1015.77 1015.90 1015.99
1009.68 1010.75 1011.68 1012.38 1012.78 1012.87 1012.70 1012.34 1011.91 1011.50 1011.21 1011.08 1011.13 1011.31 1011.57 1011.83 1012.03 1012.14 1012.15 1012.09 1012.01 1011.96 1011.98 1012.09 1012.28 1012.52 1012.77 1013.00 1013.20 1013.35 1013.48 1013.60 1013.74 1013.92 1014.12 1014.35 1014.57 1014.76 1014.92 1015.02 1015.10 1015.17 1015.24 1015.35 1015.48 1015.62 1015.77 1015.89 1015.97
1010.09 1010.99 1011.73 1012.23 1012.48 1012.48 1012.29 1011.99 1011.66 1011.39 1011.26 1011.27 1011.42 1011.67 1011.95 1012.21 1012.39 1012.49 1012.50 1012.46 1012.41 1012.39 1012.44 1012.55 1012.72 1012.91 1013.10 1013.27 1013.40 1013.50 1013.60 1013.72 1013.88 1014.07 1014.30 1014.55 1014.77 1014.95 1015.07 1015.13 1015.16 1015.18 1015.21 1015.28 1015.38 1015.52 1015.65 1015.76 1015.83
1010.28 1011.02 1011.58 1011.91 1012.04 1011.98 1011.81 1011.58 1011.38 1011.26 1011.27 1011.41 1011.65 1011.94 1012.24 1012.49 1012.66 1012.74 1012.76 1012.74 1012.73 1012.75 1012.82 1012.94 1013.09 1013.24 1013.38 1013.48 1013.55 1013.61 1013.69 1013.81 1013.98 1014.20 1014.46 1014.71 1014.93 1015.09 1015.18 1015.20 1015.17 1015.13 1015.11 1015.13 1015.19 1015.30 1015.41 1015.52 1015.58
1010.29 1010.90 1011.32 1011.53 1011.58 1011.50 1011.36 1011.21 1011.13 1011.14 1011.26 1011.48 1011.77 1012.08 1012.36 1012.59 1012.74 1012.82 1012.86 1012.87 1012.90 1012.97 1013.07 1013.21 1013.35 1013.47 1013.56 1013.62 1013.65 1013.68 1013.74 1013.86 1014.05 1014.29 1014.56 1014.82 1015.04 1015.18 1015.23 1015.20 1015.11 1015.01 1014.94 1014.91 1014.93 1015.01 1015.10 1015.19 1015.25
1010.21 1010.74 1011.07 1011.22 1011.23 1011.15 1011.05 1010.98 1010.98 1011.07 1011.25 1011.50 1011.79 1012.07 1012.32 1012.51 1012.63 1012.70 1012.75 1012.80 1012.88 1012.99 1013.14 1013.30 1013.46 1013.58 1013.65 1013.68 1013.69 1013.71 1013.76 1013.88 1014.07 1014.32 1014.60 1014.86 1015.06 1015.18 1015.20 1015.13 1015.01 1014.86 1014.74 1014.67 1014.66 1014.70 1014.77 1014.85 1014.90
1010.14 1010.64 1010.94 1011.06 1011.08 1011.02 1010.96 1010.94 1010.98 1011.10 1011.28 1011.50 1011.73 1011.95 1012.13 1012.25 1012.34 1012.40 1012.46 1012.54 1012.66 1012.82 1013.02 1013.22 1013.40 1013.54 1013.62 1013.66 1013.68 1013.70 1013.75 1013.87 1014.06 1014.30 1014.57 1014.81 1015.00 1015.10 1015.11 1015.02 1014.87 1014.71 1014.56 1014.46 1014.42 1014.44 1014.49 1014.55 1014.59
1010.18 1010.68 1010.98 1011.13 1011.16 1011.14 1011.11 1011.10 1011.14 1011.23 1011.36 1011.50 1011.64 1011.76 1011.85 1011.91 1011.94 1011.98 1012.03 1012.14 1012.29 1012.49 1012.73 1012.97 1013.19 1013.37 1013.49 1013.57 1013.61 1013.65 1013.71 1013.83 1014.00 1014.22 1014.46 1014.68 1014.85 1014.95 1014.95 1014.87 1014.73 1014.57 1014.42 1014.31 1014.26 1014.26 1014.29 1014.32 1014.34
1010.38 1010.90 1011.22 1011.39 1011.46 1011.46 1011.45 1011.43 1011.43 1011.46 1011.49 1011.53 1011.55 1011.56 1011.56 1011.54 1011.52 1011.53 1011.58 1011.68 1011.84 1012.06 1012.33 1012.60 1012.86 1013.09 1013.27 1013.40 1013.49 1013.56 1013.64 1013.76 1013.91 1014.09 1014.29 1014.48 1014.64 1014.73 1014.74 1014.69 1014.59 1014.46 1014.34 1014.24 1014.19 1014.17 1014.17 1014.18 1014.17
1010.71 1011.23 1011.58 1011.78 1011.88 1011.91 1011.89 1011.85 1011.79 1011.72 1011.65 1011.57 1011.48 1011.39 1011.30 1011.22 1011.16 1011.13 1011.16 1011.25 1011.40 1011.62 1011.88 1012.17 1012.47 1012.74 1012.99 1013.18 1013.34 1013.46 1013.56 1013.67 1013.80 1013.94 1014.09 1014.25 1014.38 1014.47 1014.51 1014.51 1014.46 1014.38 1014.30 1014.23 1014.18 1014.15 1014.13 1014.11 1014.06
1011.10 1011.61 1011.97 1012.19 1012.32 1012.36 1012.34 1012.26 1012.13 1011.97 1011.79 1011.60 1011.41 1011.24 1011.09 1010.98 1010.89 1010.85 1010.85 1010.91 1011.03 1011.21 1011.45 1011.73 1012.05 1012.37 1012.67 1012.94 1013.17 1013.35 1013.48 1013.59 1013.69 1013.79 1013.89 1014.00 1014.11 1014.20 1014.28 1014.33 1014.34 1014.33 1014.30 1014.26 1014.22 1014.17 1014.12 1014.07 1013.99
1011.46 1011.94 1012.29 1012.54 1012.69 1012.76 1012.73 1012.61 1012.42 1012.17 1011.89 1011.60 1011.34 1011.12 1010.94 1010.81 1010.72 1010.68 1010.66 1010.69 1010.76 1010.88 1011.07 1011.33 1011.64 1011.99 1012.35 1012.70 1013.00 1013.24 1013.42 1013.53 1013.61 1013.66 1013.71 1013.78 1013.86 1013.96 1014.06 1014.16 1014.24 1014.29 1014.31 1014.30 1014.26 1014.20 1014.13 1014.04 1013.94
1011.70 1012.14 1012.50 1012.78 1012.97 1013.06 1013.03 1012.88 1012.62 1012.28 1011.91 1011.54 1011.22 1010.97 1010.79 1010.68 1010.62 1010.59 1010.57 1010.57 1010.59 1010.65 1010.78 1010.99 1011.28 1011.64 1012.05 1012.46 1012.83 1013.14 1013.36 1013.49 1013.55 1013.57 1013.58 1013.60 1013.66 1013.75 1013.88 1014.02 1014.16 1014.26 1014.32 1014.34 1014.31 1014.24 1014.15 1014.04 1013.92
1011.80 1012.21 1012.59 1012.92 1013.18 1013.31 1013.28 1013.10 1012.77 1012.34 1011.87 1011.42 1011.04 1010.77 1010.60 1010.53 1010.51 1010.52 1010.52 1010.51 1010.49 1010.49 1010.55 1010.70 1010.96 1011.32 1011.76 1012.22 1012.66 1013.03 1013.30 1013.46 1013.52 1013.52 1013.49 1013.48 1013.51 1013.60 1013.75 1013.93 1014.11 1014.26 1014.36 1014.39 1014.37 1014.29 1014.18 1014.06 1013.94
1011.76 1012.18 1012.63 1013.05 1013.39 1013.58 1013.57 1013.34 1012.93 1012.38 1011.79 1011.23 1010.77 1010.46 1010.31 1010.28 1010.33 1010.40 1010.44 1010.44 1010.40 1010.36 1010.37 1010.46 1010.68 1011.02 1011.47 1011.97 1012.47 1012.90 1013.22 1013.41 1013.49 1013.48 1013.43 1013.40 1013.42 1013.51 1013.68 1013.88 1014.10 1014.29 1014.42 1014.47 1014.45 1014.38 1014.27 1014.15 1014.04
1011.66 1012.15 1012.71 1013.26 1013.71 1013.97 1013.97 1013.69 1013.16 1012.45 1011.69 1010.98 1010.41 1010.04 1009.88 1009.88 1010.00 1010.15 1010.26 1010.30 1010.28 1010.23 1010.19 1010.24 1010.41 1010.73 1011.17 1011.69 1012.23 1012.71 1013.08 1013.31 1013.41 1013.42 1013.37 1013.34 1013.36 1013.46 1013.64 1013.88 1014.13 1014.35 1014.51 1014.59 1014.59 1014.52 1014.41 1014.31 1014.22
1011.60 1012.22 1012.94 1013.66 1014.24 1014.56 1014.55 1014.18 1013.49 1012.59 1011.60 1010.69 1009.96 1009.49 1009.28 1009.31 1009.49 1009.73 1009.93 1010.05 1010.08 1010.04 1009.99 1010.00 1010.14 1010.42 1010.85 1011.37 1011.93 1012.44 1012.86 1013.14 1013.27 1013.30 1013.28 1013.26 1013.30 1013.42 1013.62 1013.89 1014.18 1014.44 1014.63 1014.74 1014.75 1014.70 1014.61 1014.52 1014.46
1011.67 1012.47 1013.39 1014.28 1014.99 1015.37 1015.32 1014.83 1013.94 1012.78 1011.54 1010.38 1009.44 1008.82 1008.55 1008.58 1008.81 1009.14 1009.45 1009.67 1009.77 1009.78 1009.74 1009.74 1009.85 1010.10 1010.50 1011.01 1011.57 1012.10 1012.55 1012.87 1013.05 1013.12 1013.14 1013.15 1013.21 1013.36 1013.59 1013.90 1014.22 1014.52 1014.75 1014.88 1014.92 1014.89 1014.81 1014.74 1014.70
1011.92 1012.91 1014.03 1015.10 1015.92 1016.32 1016.21 1015.56 1014.45 1013.02 1011.48 1010.04 1008.88 1008.09 1007.73 1007.73 1008.01 1008.42 1008.84 1009.17 1009.37 1009.44 1009.44 1009.45 1009.54 1009.76 1010.13 1010.62 1011.17 1011.71 1012.19 1012.54 1012.77 1012.89 1012.94 1012.99 1013.09 1013.27 1013.53 1013.87 1014.23 1014.56 1014.82 1014.98 1015.05 1015.03 1014.97 1014.91 1014.88
1012.34 1013.52 1014.82 1016.02 1016.90 1017.30 1017.09 1016.28 1014.93 1013.23 1011.40 1009.70 1008.30 1007.35 1006.88 1006.84 1007.15 1007.63 1008.15 1008.59 1008.90 1009.05 1009.11 1009.14 1009.22 1009.42 1009.76 1010.23 1010.76 1011.31 1011.80 1012.19 1012.46 1012.62 1012.72 1012.80 1012.93 1013.14 1013.43 1013.79 1014.17 1014.53 1014.81 1015.00 1015.09 1015.09 1015.03 1014.97 1014.94
1012.86 1014.20 1015.62 1016.89 1017.80 1018.15 1017.83 1016.84 1015.29 1013.34 1011.28 1009.34 1007.75 1006.64 1006.07 1006.00 1006.31 1006.85 1007.45 1007.99 1008.38 1008.62 1008.74 1008.81 1008.91 1009.10 1009.42 1009.87 1010.40 1010.95 1011.45 1011.87 1012.17 1012.37 1012.50 1012.62 1012.77 1012.99 1013.29 1013.65 1014.04 1014.41 1014.71 1014.92 1015.01 1015.02 1014.97 1014.90 1014.85
1013.39 1014.81 1016.28 1017.57 1018.44 1018.71 1018.27 1017.14 1015.42 1013.31 1011.07 1008.98 1007.26 1006.04 1005.39 1005.27 1005.58 1006.14 1006.79 1007.39 1007.86 1008.17 1008.35 1008.46 1008.59 1008.80 1009.13 1009.57 1010.10 1010.66 1011.18 1011.62 1011.95 1012.18 1012.34 1012.47 1012.62 1012.83 1013.12 1013.47 1013.85 1014.21 1014.51 1014.72 1014.82 1014.83 1014.78 1014.70 1014.63
1013.82 1015.25 1016.69 1017.91 1018.69 1018.86 1018.32 1017.08 1015.27 1013.08 1010.78 1008.62 1006.84 1005.58 1004.88 1004.72 1005.00 1005.55 1006.20 1006.82 1007.33 1007.69 1007.92 1008.09 1008.26 1008.51 1008.86 1009.33 1009.88 1010.46 1011.01 1011.47 1011.83 1012.07 1012.24 1012.36 1012.50 1012.69 1012.94 1013.25 1013.60 1013.93 1014.22 1014.42 1014.53 1014.54 1014.48 1014.40 1014.32
1014.06 1015.42 1016.75 1017.84 1018.49 1018.54 1017.91 1016.63 1014.81 1012.64 1010.38 1008.28 1006.53 1005.27 1004.56 1004.37 1004.59 1005.09 1005.70 1006.30 1006.80 1007.18 1007.45 1007.66 1007.90 1008.20 1008.61 1009.13 1009.72 1010.34 1010.92 1011.41 1011.78 1012.03 1012.19 1012.30 1012.40 1012.55 1012.75 1013.01 1013.30 1013.60 1013.87 1014.06 1014.16 1014.18 1014.13 1014.04 1013.95
1014.11 1015.32 1016.47 1017.37 1017.85 1017.77 1017.09 1015.82 1014.07 1012.03 1009.91 1007.94 1006.30 1005.11 1004.42 1004.19 1004.35 1004.76 1005.28 1005.80 1006.26 1006.62 1006.91 1007.18 1007.47 1007.85 1008.33 1008.92 1009.57 1010.23 1010.85 1011.36 1011.74 1012.00 1012.15 1012.23 1012.29 1012.38 1012.52 1012.72 1012.97 1013.23 1013.46 1013.64 1013.75 1013.77 1013.73 1013.65 1013.57
Thickness
5821 5820 5816 5805 5783 5762 5755 5766 5774 5774 5774 5781 5783 5779 5770 5763 5758 5754 5772 5781 5780 5779 5778 5778 5777 5776 5774 5774 5773 5773 5771 5770 5769 5769 5768 5767 5766 5765 5764 5763 5763 5762 5762 5761 5760 5759 5758 5757 5757
5824 5821 5811 5794 5768 5747 5753 5770 5772 5776 5782 5786 5784 5779 5771 5767 5771 5771 5775 5779 5781 5779 5777 5776 5775 5774 5773 5772 5772 5771 5770 5769 5768 5767 5767 5766 5765 5764 5763 5762 5762 5762 5761 5760 5759 5759 5758 5756 5755
5825 5821 5801 5782 5764 5753 5759 5773 5776 5783 5790 5787 5780 5779 5772 5768 5773 5774 5779 5781 5780 5778 5776 5775 5774 5773 5772 5771 5770 5769 5769 5768 5767 5766 5766 5765 5764 5763 5762 5761 5761 5761 5760 5759 5759 5758 5757 5755 5754
5823 5810 5796 5775 5764 5772 5776 5780 5784 5783 5786 5788 5781 5773 5775 5781 5780 5781 5782 5781 5778 5776 5775 5774 5772 5771 5770 5769 5768 5768 5767 5767 5766 5765 5765 5764 5763 5762 5761 5761 5760 5760 5759 5759 5758 5757 5756 5755 5754
5821 5800 5779 5765 5769 5780 5787 5790 5789 5782 5781 5783 5780 5769 5769 5781 5785 5784 5782 5780 5777 5775 5774 5773 5771 5770 5769 5768 5767 5767 5766 5765 5765 5764 5763 5762 5762 5761 5760 5760 5759 5759 5758 5758 5757 5756 5755 5754 5753
5806 5792 5767 5759 5770 5783 5789 5794 5789 5782 5781 5782 5778 5769 5769 5780 5781 5781 5781 5778 5776 5774 5773 5772 5771 5769 5768 5767 5766 5766 5765 5764 5764 5763 5762 5761 5761 5760 5760 5759 5759 5758 5758 5757 5756 5756 5755 5754 5753
5799 5784 5770 5769 5771 5779 5789 5796 5789 5783 5781 5783 5783 5769 5769 5776 5780 5781 5779 5777 5775 5773 5772 5770 5769 5768 5767 5766 5765 5765 5764 5764 5763 5762 5762 5761 5760 5760 5759 5759 5758 5758 5757 5757 5757 5756 5755 5754 5753
5810 5789 5775 5773 5773 5779 5794 5797 5795 5790 5785 5793 5790 5772 5768 5777 5781 5779 5776 5774 5772 5771 5770 5769 5768 5767 5766 5765 5764 5764 5763 5763 5762 5762 5762 5761 5760 5760 5759 5759 5758 5758 5757 5757 5757 5756 5755 5754 5754
5815 5784 5771 5778 5780 5786 5797 5794 5797 5801 5793 5792 5792 5786 5785 5784 5781 5776 5771 5769 5768 5768 5768 5767 5766 5766 5765 5764 5764 5763 5763 5762 5762 5762 5761 5761 5760 5759 5759 5758 5758 5758 5758 5758 5757 5757 5756 5755 5754
5805 5779 5785 5799 5801 5798 5800 5797 5797 5793 5786 5783 5784 5786 5787 5782 5777 5772 5768 5766 5765 5765 5766 5767 5766 5765 5764 5764 5763 5762 5762 5762 5761 5761 5761 5760 5760 5759 5759 5759 5759 5759 5758 5758 5758 5757 5757 5756 5755
5806 5794 5804 5810 5813 5810 5803 5800 5802 5790 5781 5784 5783 5782 5782 5779 5776 5772 5770 5769 5768 5767 5767 5768 5767 5766 5764 5764 5763 5762 5762 5761 5761 5761 5760 5760 5759 5759 5758 5758 5758 5758 5758 5758 5758 5757 5757 5757 5756
5808 5810 5815 5815 5818 5812 5805 5803 5798 5795 5794 5800 5796 5790 5784 5779 5776 5774 5772 5771 5770 5768 5768 5769 5768 5766 5765 5764 5763 5762 5761 5761 5760 5760 5760 5759 5759 5758 5758 5757 5757 5757 5757 5757 5757 5757 5758 5757 5757
5809 5812 5819 5820 5818 5814 5809 5802 5799 5797 5803 5803 5797 5790 5785 5781 5779 5778 5776 5775 5773 5770 5770 5770 5770 5768 5766 5765 5764 5763 5761 5761 5760 5760 5760 5759 5758 5758 5757 5757 5757 5757 5756 5757 5757 5757 5757 5758 5757
5816 5815 5816 5817 5816 5814 5804 5800 5798 5796 5802 5798 5793 5788 5786 5783 5781 5778 5777 5775 5774 5773 5772 5772 5771 5770 5768 5766 5764 5763 5762 5761 5761 5761 5760 5760 5759 5758 5758 5757 5757 5757 5756 5756 5757 5757 5757 5757 5757
5821 5809 5808 5811 5813 5810 5805 5791 5794 5800 5800 5794 5791 5789 5787 5786 5784 5782 5781 5780 5778 5776 5775 5773 5773 5771 5769 5767 5766 5764 5763 5762 5762 5761 5761 5760 5759 5759 5758 5758 5757 5757 5757 5757 5757 5757 5756 5757 5757
5811 5796 5786 5803 5810 5809 5797 5778 5796 5802 5797 5791 5791 5790 5788 5787 5787 5786 5786 5784 5782 5779 5777 5776 5776 5773 5770 5769 5767 5766 5764 5763 5762 5762 5761 5761 5760 5759 5759 5758 5758 5758 5757 5757 5756 5756 5755 5755 5755
5790 5778 5781 5794 5808 5806 5795 5783 5797 5802 5796 5791 5790 5790 5788 5787 5788 5789 5789 5787 5785 5782 5780 5777 5776 5774 5772 5770 5768 5767 5765 5764 5763 5762 5761 5761 5760 5760 5760 5759 5759 5758 5757 5756 5756 5755 5754 5754 5754
5779 5779 5782 5786 5801 5800 5790 5787 5795 5799 5796 5792 5791 5790 5789 5788 5790 5792 5791 5790 5788 5786 5783 5779 5776 5775 5772 5770 5768 5767 5765 5765 5764 5763 5762 5762 5761 5761 5760 5760 5759 5758 5757 5756 5755 5754 5753 5753 5753
5795 5787 5782 5791 5804 5796 5789 5788 5793 5797 5795 5791 5790 5789 5789 5791 5795 5794 5793 5792 5789 5786 5783 5780 5777 5776 5773 5770 5767 5765 5764 5764 5764 5764 5764 5763 5762 5761 5761 5760 5759 5758 5757 5756 5754 5753 5751 5751 5751
5795 5785 5784 5793 5803 5795 5786 5786 5794 5798 5797 5797 5794 5792 5792 5791 5792 5793 5793 5792 5789 5786 5784 5781 5779 5778 5776 5774 5771 5769 5766 5765 5765 5765 5764 5764 5763 5762 5762 5760 5759 5758 5757 5755 5753 5752 5749 5749 5750
5793 5788 5788 5787 5793 5793 5786 5778 5785 5794 5798 5799 5799 5798 5797 5795 5793 5793 5792 5791 5790 5787 5786 5785 5781 5780 5778 5776 5772 5769 5766 5765 5763 5763 5763 5764 5763 5762 5762 5761 5760 5758 5756 5754 5753 5752 5749 5746 5747
5787 5803 5799 5791 5777 5765 5775 5753 5775 5784 5788 5793 5796 5798 5799 5799 5798 5796 5794 5792 5791 5790 5788 5786 5783 5780 5778 5775 5772 5768 5764 5761 5763 5763 5763 5763 5763 5762 5761 5760 5759 5758 5756 5754 5753 5752 5750 5747 5744
5800 5807 5798 5788 5773 5762 5765 5754 5764 5780 5781 5790 5797 5800 5801 5802 5801 5799 5797 5796 5795 5793 5790 5787 5784 5781 5778 5776 5773 5769 5766 5764 5764 5763 5762 5762 5761 5760 5760 5759 5758 5756 5755 5754 5752 5751 5749 5747 5745
5809 5796 5784 5770 5760 5746 5759 5752 5755 5772 5784 5793 5800 5803 5803 5803 5803 5801 5799 5797 5794 5793 5791 5787 5783 5780 5778 5776 5773 5770 5766 5764 5762 5760 5759 5759 5758 5758 5758 5757 5756 5755 5754 5753 5752 5750 5748 5746 5744
5798 5771 5746 5742 5732 5738 5757 5752 5760 5789 5797 5800 5802 5804 5805 5804 5802 5799 5796 5794 5793 5792 5790 5786 5782 5778 5777 5775 5772 5769 5767 5764 5761 5759 5758 5756 5755 5755 5755 5755 5753 5753 5752 5751 5750 5749 5747 5745 5743
5787 5774 5745 5732 5727 5736 5750 5748 5772 5797 5803 5805 5806 5806 5805 5802 5801 5799 5798 5796 5794 5792 5789 5784 5780 5777 5775 5773 5770 5768 5766 5763 5761 5759 5758 5756 5755 5754 5754 5753 5751 5750 5750 5749 5748 5746 5744 5742 5740
5783 5770 5772 5747 5739 5732 5740 5755 5777 5795 5797 5799 5801 5801 5800 5800 5800 5798 5797 5794 5792 5790 5787 5784 5779 5775 5773 5771 5768 5765 5763 5761 5759 5758 5756 5755 5754 5753 5752 5751 5749 5747 5746 5745 5744 5742 5740 5738 5737
5793 5775 5755 5741 5727 5723 5737 5746 5757 5779 5787 5792 5794 5796 5798 5798 5797 5796 5794 5792 5791 5789 5786 5783 5778 5774 5770 5767 5766 5764 5761 5759 5758 5756 5753 5752 5751 5750 5749 5747 5745 5744 5742 5741 5739 5738 5736 5734 5732
5777 5768 5754 5738 5737 5724 5721 5743 5782 5784 5790 5791 5794 5796 5796 5796 5795 5794 5792 5790 5787 5785 5782 5779 5776 5771 5768 5766 5764 5761 5759 5757 5755 5753 5751 5749 5748 5746 5745 5743 5741 5740 5738 5736 5734 5733 5731 5729 5727
5786 5773 5757 5744 5735 5728 5727 5746 5794 5792 5794 5793 5793 5794 5795 5795 5793 5792 5790 5786 5782 5780 5778 5775 5773 5770 5767 5764 5762 5759 5756 5754 5751 5749 5748 5746 5743 5742 5740 5739 5737 5736 5734 5732 5730 5728 5726 5723 5721